Lobo

Go HERE for most recent data if this page is not up to date.

Jump to table bottom
Date/Time Temp deg F RH % 24 Hr Snow (in) Snow Depth (in) H2O (in)
03/29 05:00 19.3 77 0.0 67.9 0.00
03/29 04:00 18.6 80 0.2 68.3 0.00
03/29 03:00 18.2 70 0.2 67.8 0.00
03/29 02:00 18.7 70 0.1 67.7 0.00
03/29 01:00 18.8 76 0.0 67.8 0.00
03/29 00:00 20.0 76 0.0 68.2 0.00
03/28 23:00 20.5 76 0.0 67.5 0.00
03/28 22:00 20.9 77 0.0 68.0 0.00
03/28 21:00 21.3 74 0.0 68.4 0.00
03/28 20:00 22.0 72 -0.0 68.0 0.00
03/28 19:00 22.9 69 -0.0 68.0 0.00
03/28 18:00 24.6 65 -0.2 68.1 0.00
03/28 17:00 25.8 60 -0.2 67.8 0.00
03/28 16:00 25.1 60 -0.2 68.5 0.00
03/28 15:00 25.4 58 -0.4 68.5 0.00
03/28 14:00 24.2 58 -0.3 68.9 0.00
03/28 13:00 21.8 60 -0.0 69.9 0.00
03/28 12:00 20.1 66 -0.1 70.3 0.00
03/28 11:00 17.8 67 10.9 70.3 0.00
03/28 10:00 16.4 79 10.8 70.6 0.00
03/28 09:00 15.2 85 10.6 69.8 0.01
03/28 08:00 14.8 82 10.1 69.9 0.01
03/28 07:00 14.9 83 10.5 70.0 0.00
03/28 06:00 15.1 81 10.6 70.2 0.00
03/28 05:00 14.8 83 10.4 70.1 0.01
03/28 04:00 15.0 85 9.8 69.5 0.00
03/28 03:00 15.8 83 10.4 69.3 0.00
03/28 02:00 15.9 81 9.0 68.8 0.01
03/28 01:00 15.9 78 9.6 69.2 0.00
03/28 00:00 16.1 85 9.3 69.2 0.00
.